Showing default

BADR B, 27003

Orbit data source: Space-Track

BADR B, 27003 is a payload satellite owned by SUPARCO (PK) in SSO that was launched on Mon, 10 Dec 2001 UTC via a ZENIT-2 launch vehicle from the Tyuratam Missile And Space Complex (TTMTR). Payload-class satellites include a variety of spacecraft equipped with specific instruments for various scientific and technological missions. These include communications satellites like Starlink; space stations such as the ISS; scientific satellites like the Hubble; Earth observation satellites from companies like Planet Labs, Umbra, and HawkEye 360; GPS; miniature CubeSats for education and research; and military/defense satellites.

Loading next visibility...
Identifier
27003, 2001-056C
Orbit
SSO
Country
Flag of UnknownUnknown / PAKI
Related business
Manufacturer
SIL
Mission
Non-operational Civil Imaging
Bus & Motor
MICROSIL, Unknown motor
Mass
69 kg wet, 69 kg dry
Launch date (UTC)
2001-12-10 (24 years ago)
Launch vehicle
ZENIT-2
Launch site
Tyuratam Missile And Space Complex (TTMTR)
Object type
Payload
Rocket body
Debris
Shape & HBR
Box + 1 Arm, 3.3 m
Radar Cross Section
0.375 m², Medium (>0.1 m² and < 1m²)

Expand to show TLE details & history
Last TLE update: 1 day ago

TLE from 1 day ago
0 BADR B
1 27003U 01056C   25259.99893783 -.00000004  00000-0  47880-4 0  9999
2 27003  99.7828  65.8023 0020960 115.9030 244.4279 13.70388168188528
Epoch: 2025-09-16T23:58Z
TLE epoch observation values (Epoch: 2025-09-16T23:58:28.228Z)
Latitude
-0.00001°
Longitude
70.00349°
Altitude
1,007.69 km
Speed
7.345 km/s
True Right ascension
04h 23m 12s
True Declination
0° 00' 00"
Sunlit
Object was in daylight at epoch
Visualization orbit readout
Latitude
Unknown
Longitude
Unknown
Altitude
Unknown
Speed
Unknown
Apparent Right ascension
Unknown
Apparent Declination
Unknown
Sunlit
N/A
Visualization observer readout
Local Sidereal Time
18:31:54
Azimuth
Unknown
Elevation
Unknown
Doppler factor
Unknown
Orbital elements
Apogee altitude
1,010.911 km
Perigee altitude
980.001 km
Semi-major axis
7,373.593 km
Eccentricity
0.0021
Inclination
99.7828°
RAAN
65.8023°
Arg. of periapsis
115.903°
True anomaly
244.21149°
Mean anomaly
244.4279°
Eccentric anomaly
244.31967°
Mean motion
3.42787 °/min
Orbital period
105.02 mins
BSTAR
0.00004788
Loading maneuver chart data...
Computing Atmospheric mass density...
Loading historical data...
Loading historical data...
Loading historical data...
Loading historical data...
Loading historical data...
Loading historical data...
Loading historical data...

Documentation

Showing up to 5 results
|